| time (UTC) | temp C | wind direction | speed KPH | gust KPH | rain 1hr cm | rain 24hr cm | rain mn cm | humidity % | barometer mb |
| 20260510075513 | 3 | 0 | 0.0 | 1.6 | 0.00 | 0.00 | 0.00 | 66 | 1014.8 |
| 20260510075012 | 3 | 0 | 0.0 | 1.6 | 0.00 | 0.00 | 0.00 | 66 | 1014.8 |
| 20260510074530 | 3 | 0 | 0.0 | 1.6 | 0.00 | 0.00 | 0.00 | 65 | 1014.8 |
| 20260510074016 | 3 | 0 | 0.0 | 0.0 | 0.00 | 0.00 | 0.00 | 65 | 1014.7 |
| 20260510073516 | 3 | 0 | 0.0 | 3.2 | 0.00 | 0.00 | 0.00 | 65 | 1014.7 |
| 20260510073032 | 3 | 0 | 0.0 | 3.2 | 0.00 | 0.00 | 0.00 | 66 | 1014.7 |
| 20260510072510 | 3 | 331 | 0.0 | 3.2 | 0.00 | 0.00 | 0.00 | 65 | 1014.7 |
| 20260510072017 | 3 | 0 | 0.0 | 3.2 | 0.00 | 0.00 | 0.00 | 66 | 1014.8 |
| 20260510071531 | 3 | 331 | 0.0 | 3.2 | 0.00 | 0.00 | 0.00 | 66 | 1014.7 |
| 20260510071010 | 3 | 0 | 0.0 | 4.8 | 0.00 | 0.00 | 0.00 | 67 | 1014.6 |
| 20260510070512 | 3 | 0 | 0.0 | 4.8 | 0.00 | 0.00 | 0.00 | 68 | 1014.7 |
| 20260510070036 | 3 | 0 | 0.0 | 4.8 | 0.00 | 0.00 | 0.00 | 68 | 1014.6 |
| 20260510065511 | 3 | 0 | 0.0 | 1.6 | 0.00 | 0.00 | 0.00 | 69 | 1014.7 |
| 20260510065014 | 3 | 0 | 0.0 | 1.6 | 0.00 | 0.00 | 0.00 | 68 | 1014.6 |
| 20260510064535 | 3 | 0 | 0.0 | 0.0 | 0.00 | 0.00 | 0.00 | 68 | 1014.5 |
| 20260510064010 | 3 | 0 | 0.0 | 0.0 | 0.00 | 0.00 | 0.00 | 68 | 1014.5 |
| 20260510063516 | 2 | 0 | 0.0 | 0.0 | 0.00 | 0.00 | 0.00 | 68 | 1014.6 |
| 20260510063034 | 2 | 0 | 0.0 | 0.0 | 0.00 | 0.00 | 0.00 | 69 | 1014.6 |
| 20260510062511 | 2 | 0 | 0.0 | 0.0 | 0.00 | 0.00 | 0.00 | 69 | 1014.7 |
| 20260510062014 | 2 | 0 | 0.0 | 0.0 | 0.00 | 0.00 | 0.00 | 69 | 1014.6 |
| 20260510061533 | 2 | 0 | 0.0 | 0.0 | 0.00 | 0.00 | 0.00 | 69 | 1014.6 |
| 20260510061009 | 2 | 0 | 0.0 | 0.0 | 0.00 | 0.00 | 0.00 | 70 | 1014.5 |
| 20260510060516 | 2 | 0 | 0.0 | 0.0 | 0.00 | 0.00 | 0.00 | 73 | 1014.5 |
| 20260510060032 | 2 | 0 | 0.0 | 0.0 | 0.00 | 0.00 | 0.00 | 70 | 1014.5 |
| 20260510055510 | 2 | 0 | 0.0 | 0.0 | 0.00 | 0.00 | 0.00 | 69 | 1014.5 |
| 20260510055013 | 2 | 0 | 0.0 | 0.0 | 0.00 | 0.00 | 0.00 | 71 | 1014.5 |
| 20260510054532 | 2 | 0 | 0.0 | 0.0 | 0.00 | 0.00 | 0.00 | 72 | 1014.5 |
| 20260510054016 | 2 | 0 | 0.0 | 0.0 | 0.00 | 0.00 | 0.00 | 72 | 1014.4 |
| 20260510053511 | 2 | 0 | 0.0 | 0.0 | 0.00 | 0.00 | 0.00 | 67 | 1014.4 |
| 20260510053034 | 2 | 0 | 0.0 | 0.0 | 0.00 | 0.00 | 0.00 | 66 | 1014.4 |
| 20260510052511 | 2 | 0 | 0.0 | 0.0 | 0.00 | 0.00 | 0.00 | 66 | 1014.4 |
| 20260510052017 | 3 | 0 | 0.0 | 0.0 | 0.00 | 0.00 | 0.00 | 64 | 1014.3 |
| 20260510051530 | 3 | 0 | 0.0 | 0.0 | 0.00 | 0.00 | 0.00 | 64 | 1014.4 |
| 20260510051011 | 3 | 0 | 0.0 | 0.0 | 0.00 | 0.00 | 0.00 | 64 | 1014.3 |
| 20260510050510 | 3 | 0 | 0.0 | 0.0 | 0.00 | 0.00 | 0.00 | 64 | 1014.4 |
| 20260510050033 | 3 | 0 | 0.0 | 0.0 | 0.00 | 0.00 | 0.00 | 63 | 1014.4 |
| 20260510045519 | 3 | 0 | 0.0 | 0.0 | 0.00 | 0.00 | 0.00 | 64 | 1014.4 |
| 20260510045013 | 3 | 0 | 0.0 | 0.0 | 0.00 | 0.00 | 0.00 | 64 | 1014.4 |
| 20260510044547 | 3 | 0 | 0.0 | 0.0 | 0.00 | 0.00 | 0.00 | 64 | 1014.4 |
| 20260510044011 | 3 | 0 | 0.0 | 0.0 | 0.00 | 0.00 | 0.00 | 64 | 1014.4 |
| 20260510043513 | 3 | 0 | 0.0 | 0.0 | 0.00 | 0.00 | 0.00 | 64 | 1014.4 |
| 20260510043030 | 3 | 0 | 0.0 | 0.0 | 0.00 | 0.00 | 0.00 | 64 | 1014.3 |
| 20260510042513 | 3 | 0 | 0.0 | 0.0 | 0.00 | 0.00 | 0.00 | 65 | 1014.3 |
| 20260510042015 | 3 | 0 | 0.0 | 0.0 | 0.00 | 0.00 | 0.00 | 64 | 1014.3 |
| 20260510041529 | 3 | 0 | 0.0 | 0.0 | 0.00 | 0.00 | 0.00 | 63 | 1014.3 |
| 20260510041011 | 3 | 0 | 0.0 | 0.0 | 0.00 | 0.00 | 0.00 | 63 | 1014.3 |
| 20260510040509 | 3 | 0 | 0.0 | 0.0 | 0.00 | 0.00 | 0.00 | 63 | 1014.3 |
| 20260510040032 | 3 | 0 | 0.0 | 0.0 | 0.00 | 0.00 | 0.00 | 62 | 1014.2 |
| 20260510035510 | 4 | 0 | 0.0 | 0.0 | 0.00 | 0.00 | 0.00 | 60 | 1014.2 |
| 20260510035011 | 4 | 0 | 0.0 | 0.0 | 0.00 | 0.00 | 0.00 | 60 | 1014.2 |
| 20260510034532 | 4 | 0 | 0.0 | 0.0 | 0.00 | 0.00 | 0.00 | 61 | 1014.1 |
| 20260510034011 | 4 | 0 | 0.0 | 0.0 | 0.00 | 0.00 | 0.00 | 59 | 1014.0 |
| 20260510033515 | 5 | 0 | 0.0 | 0.0 | 0.00 | 0.00 | 0.00 | 58 | 1014.0 |
| 20260510033030 | 5 | 0 | 0.0 | 0.0 | 0.00 | 0.00 | 0.00 | 58 | 1013.9 |
| 20260510032510 | 5 | 0 | 0.0 | 0.0 | 0.00 | 0.00 | 0.00 | 59 | 1014.0 |
| 20260510032017 | 5 | 0 | 0.0 | 0.0 | 0.00 | 0.00 | 0.00 | 58 | 1013.9 |
| 20260510031530 | 5 | 0 | 0.0 | 0.0 | 0.00 | 0.00 | 0.00 | 57 | 1013.9 |
| 20260510031011 | 5 | 0 | 0.0 | 0.0 | 0.00 | 0.00 | 0.00 | 57 | 1013.9 |
| 20260510030513 | 5 | 0 | 0.0 | 0.0 | 0.00 | 0.00 | 0.00 | 57 | 1013.8 |
| 20260510030030 | 6 | 0 | 0.0 | 0.0 | 0.00 | 0.00 | 0.00 | 56 | 1013.8 |
| 20260510025511 | 6 | 0 | 0.0 | 0.0 | 0.00 | 0.00 | 0.00 | 54 | 1013.8 |
| 20260510025014 | 6 | 0 | 0.0 | 0.0 | 0.00 | 0.00 | 0.00 | 54 | 1013.7 |
| 20260510024532 | 6 | 0 | 0.0 | 1.6 | 0.00 | 0.00 | 0.00 | 55 | 1013.6 |
| 20260510024012 | 6 | 0 | 0.0 | 1.6 | 0.00 | 0.00 | 0.00 | 55 | 1013.6 |
| 20260510023517 | 6 | 0 | 0.0 | 1.6 | 0.00 | 0.00 | 0.00 | 55 | 1013.5 |
| 20260510023032 | 6 | 0 | 0.0 | 4.8 | 0.00 | 0.00 | 0.00 | 54 | 1013.4 |
| 20260510022515 | 6 | 0 | 0.0 | 4.8 | 0.00 | 0.00 | 0.00 | 55 | 1013.4 |
| 20260510022018 | 6 | 0 | 0.0 | 4.8 | 0.00 | 0.00 | 0.00 | 53 | 1013.4 |
| 20260510021532 | 6 | 0 | 0.0 | 6.4 | 0.00 | 0.00 | 0.00 | 53 | 1013.3 |
| 20260510021011 | 6 | 0 | 1.6 | 6.4 | 0.00 | 0.00 | 0.00 | 52 | 1013.2 |
| 20260510020515 | 6 | 0 | 0.0 | 3.2 | 0.00 | 0.00 | 0.00 | 51 | 1013.0 |
| 20260510020032 | 7 | 0 | 0.0 | 4.8 | 0.00 | 0.00 | 0.00 | 51 | 1012.9 |
| 20260510015515 | 7 | 313 | 0.0 | 6.4 | 0.00 | 0.00 | 0.00 | 51 | 1012.8 |
| 20260510015010 | 7 | 0 | 0.0 | 6.4 | 0.00 | 0.00 | 0.00 | 51 | 1012.8 |
| 20260510014529 | 7 | 0 | 1.6 | 8.0 | 0.00 | 0.00 | 0.00 | 49 | 1012.7 |
| 20260510014010 | 7 | 349 | 1.6 | 8.0 | 0.00 | 0.00 | 0.00 | 50 | 1012.6 |
| 20260510013512 | 7 | 0 | 0.0 | 14.5 | 0.00 | 0.00 | 0.00 | 49 | 1012.4 |
| 20260510013029 | 7 | 302 | 3.2 | 14.5 | 0.00 | 0.00 | 0.00 | 48 | 1012.3 |
| 20260510012511 | 7 | 5 | 1.6 | 8.0 | 0.00 | 0.00 | 0.00 | 48 | 1012.1 |
| 20260510012015 | 7 | 292 | 1.6 | 12.9 | 0.00 | 0.00 | 0.00 | 48 | 1011.9 |
| 20260510011528 | 8 | 307 | 1.6 | 12.9 | 0.00 | 0.00 | 0.00 | 47 | 1011.9 |
| 20260510011011 | 8 | 300 | 3.2 | 12.9 | 0.00 | 0.00 | 0.00 | 46 | 1011.8 |
| 20260510010510 | 8 | 0 | 3.2 | 12.9 | 0.00 | 0.00 | 0.00 | 46 | 1011.7 |
| 20260510010032 | 8 | 307 | 3.2 | 12.9 | 0.00 | 0.00 | 0.00 | 44 | 1011.6 |
| 20260510005512 | 8 | 317 | 3.2 | 9.7 | 0.00 | 0.00 | 0.00 | 44 | 1011.5 |
| 20260510005018 | 9 | 288 | 1.6 | 9.7 | 0.00 | 0.00 | 0.00 | 44 | 1011.3 |
| 20260510004532 | 9 | 325 | 1.6 | 14.5 | 0.00 | 0.00 | 0.00 | 43 | 1011.3 |
| 20260510004011 | 9 | 360 | 3.2 | 17.7 | 0.00 | 0.00 | 0.00 | 42 | 1011.2 |
| 20260510003515 | 10 | 312 | 1.6 | 17.7 | 0.00 | 0.00 | 0.00 | 43 | 1011.2 |
| 20260510003033 | 10 | 284 | 8.0 | 17.7 | 0.00 | 0.00 | 0.00 | 41 | 1011.2 |
| 20260510002510 | 10 | 321 | 3.2 | 17.7 | 0.00 | 0.00 | 0.00 | 41 | 1011.0 |
| 20260510002013 | 10 | 246 | 3.2 | 14.5 | 0.00 | 0.00 | 0.00 | 43 | 1010.9 |
| 20260510001531 | 10 | 325 | 4.8 | 14.5 | 0.00 | 0.00 | 0.00 | 41 | 1010.8 |
| 20260510001011 | 10 | 331 | 3.2 | 12.9 | 0.00 | 0.00 | 0.00 | 41 | 1010.7 |
| 20260510000514 | 10 | 279 | 1.6 | 12.9 | 0.00 | 0.00 | 0.00 | 42 | 1010.7 |
| 20260510000036 | 10 | 273 | 3.2 | 20.9 | 0.00 | 0.00 | 0.00 | 42 | 1010.5 |
| 20260509235509 | 10 | 0 | 3.2 | 20.9 | 0.00 | 0.00 | 0.00 | 43 | 1010.4 |
| 20260509235012 | 10 | 343 | 6.4 | 19.3 | 0.00 | 0.00 | 0.00 | 40 | 1010.3 |
| 20260509234539 | 11 | 302 | 4.8 | 19.3 | 0.00 | 0.00 | 0.00 | 42 | 1010.3 |
| 20260509234014 | 10 | 316 | 6.4 | 19.3 | 0.00 | 0.00 | 0.00 | 39 | 1010.4 |
| 20260509233511 | 10 | 326 | 3.2 | 12.9 | 0.00 | 0.00 | 0.00 | 40 | 1010.3 |
| 20260509233030 | 10 | 323 | 4.8 | 12.9 | 0.00 | 0.00 | 0.00 | 40 | 1010.3 |
| 20260509232511 | 10 | 327 | 3.2 | 14.5 | 0.00 | 0.00 | 0.00 | 40 | 1010.2 |
| 20260509232017 | 10 | 268 | 3.2 | 14.5 | 0.00 | 0.00 | 0.00 | 42 | 1010.2 |
| 20260509231533 | 10 | 0 | 1.6 | 8.0 | 0.00 | 0.00 | 0.00 | 45 | 1010.2 |
| 20260509231010 | 10 | 0 | 0.0 | 8.0 | 0.00 | 0.00 | 0.00 | 46 | 1010.2 |
| 20260509230515 | 10 | 332 | 1.6 | 8.0 | 0.00 | 0.00 | 0.00 | 43 | 1010.1 |
| 20260509230031 | 10 | 0 | 1.6 | 16.1 | 0.00 | 0.00 | 0.00 | 43 | 1010.0 |
| 20260509225512 | 10 | 267 | 4.8 | 16.1 | 0.00 | 0.00 | 0.00 | 44 | 1010.0 |
| 20260509225015 | 10 | 0 | 0.0 | 11.3 | 0.00 | 0.00 | 0.00 | 43 | 1009.9 |
| 20260509224544 | 10 | 0 | 1.6 | 9.7 | 0.00 | 0.00 | 0.00 | 45 | 1010.0 |
| 20260509224009 | 10 | 329 | 1.6 | 11.3 | 0.00 | 0.00 | 0.00 | 42 | 1009.9 |
| 20260509223515 | 10 | 334 | 3.2 | 16.1 | 0.00 | 0.00 | 0.00 | 41 | 1009.9 |
| 20260509223030 | 10 | 348 | 1.6 | 16.1 | 0.00 | 0.00 | 0.00 | 44 | 1009.8 |
| 20260509222509 | 10 | 327 | 6.4 | 17.7 | 0.00 | 0.00 | 0.00 | 40 | 1009.8 |
| 20260509222013 | 10 | 296 | 4.8 | 17.7 | 0.00 | 0.00 | 0.00 | 40 | 1009.7 |
| 20260509221531 | 10 | 315 | 4.8 | 17.7 | 0.00 | 0.00 | 0.00 | 41 | 1009.8 |
| 20260509221011 | 10 | 325 | 1.6 | 12.9 | 0.00 | 0.00 | 0.00 | 44 | 1009.7 |
| 20260509220515 | 10 | 329 | 4.8 | 17.7 | 0.00 | 0.00 | 0.00 | 40 | 1009.7 |
| 20260509220029 | 10 | 0 | 1.6 | 22.5 | 0.00 | 0.00 | 0.00 | 42 | 1009.7 |
| 20260509215512 | 10 | 5 | 4.8 | 22.5 | 0.00 | 0.00 | 0.00 | 41 | 1009.7 |
| 20260509215015 | 10 | 306 | 4.8 | 22.5 | 0.00 | 0.00 | 0.00 | 41 | 1009.7 |
| 20260509214535 | 10 | 313 | 6.4 | 17.7 | 0.00 | 0.00 | 0.00 | 40 | 1009.6 |
| 20260509214012 | 10 | 257 | 3.2 | 12.9 | 0.00 | 0.00 | 0.00 | 39 | 1009.6 |
| 20260509213512 | 10 | 323 | 1.6 | 14.5 | 0.00 | 0.00 | 0.00 | 41 | 1009.6 |
| 20260509213030 | 10 | 295 | 3.2 | 17.7 | 0.00 | 0.00 | 0.00 | 43 | 1009.5 |
| 20260509212511 | 10 | 32 | 3.2 | 19.3 | 0.00 | 0.00 | 0.00 | 41 | 1009.5 |
| 20260509212018 | 10 | 43 | 4.8 | 19.3 | 0.00 | 0.00 | 0.00 | 40 | 1009.4 |
| 20260509211529 | 10 | 5 | 3.2 | 12.9 | 0.00 | 0.00 | 0.00 | 44 | 1009.5 |
| 20260509211010 | 10 | 319 | 4.8 | 14.5 | 0.00 | 0.00 | 0.00 | 41 | 1009.4 |
| 20260509210514 | 10 | 309 | 6.4 | 14.5 | 0.00 | 0.00 | 0.00 | 42 | 1009.5 |
| 20260509210031 | 10 | 67 | 4.8 | 19.3 | 0.00 | 0.00 | 0.00 | 41 | 1009.3 |
| 20260509205510 | 10 | 290 | 8.0 | 22.5 | 0.00 | 0.00 | 0.00 | 41 | 1009.3 |
| 20260509205011 | 10 | 294 | 8.0 | 27.4 | 0.00 | 0.00 | 0.00 | 40 | 1009.3 |
| 20260509204529 | 10 | 320 | 8.0 | 27.4 | 0.00 | 0.00 | 0.00 | 42 | 1009.2 |
| 20260509204012 | 10 | 0 | 3.2 | 17.7 | 0.00 | 0.00 | 0.00 | 42 | 1009.2 |
| 20260509203515 | 10 | 0 | 6.4 | 17.7 | 0.00 | 0.00 | 0.00 | 41 | 1009.2 |
| 20260509203035 | 11 | 17 | 3.2 | 16.1 | 0.00 | 0.00 | 0.00 | 41 | 1009.0 |
| 20260509202510 | 11 | 314 | 3.2 | 19.3 | 0.00 | 0.00 | 0.00 | 43 | 1009.1 |
| 20260509202016 | 11 | 313 | 4.8 | 19.3 | 0.00 | 0.00 | 0.00 | 42 | 1009.1 |
| 20260509201529 | 11 | 15 | 8.0 | 17.7 | 0.00 | 0.00 | 0.00 | 41 | 1009.0 |
| 20260509201011 | 10 | 240 | 3.2 | 22.5 | 0.00 | 0.00 | 0.00 | 43 | 1008.8 |
| 20260509200512 | 10 | 298 | 6.4 | 22.5 | 0.00 | 0.00 | 0.00 | 44 | 1009.0 |
| 20260509200030 | 10 | 293 | 8.0 | 22.5 | 0.00 | 0.00 | 0.00 | 42 | 1008.9 |
| 20260509195516 | 10 | 317 | 0.0 | 20.9 | 0.00 | 0.00 | 0.00 | 45 | 1008.7 |
| 20260509195013 | 10 | 313 | 8.0 | 20.9 | 0.00 | 0.00 | 0.00 | 40 | 1008.8 |
| 20260509194533 | 10 | 293 | 6.4 | 19.3 | 0.00 | 0.00 | 0.00 | 41 | 1008.8 |
| 20260509194010 | 10 | 316 | 4.8 | 17.7 | 0.00 | 0.00 | 0.00 | 43 | 1008.8 |
| 20260509193514 | 11 | 330 | 6.4 | 25.7 | 0.00 | 0.00 | 0.00 | 42 | 1008.6 |
| 20260509193032 | 11 | 32 | 8.0 | 25.7 | 0.00 | 0.00 | 0.00 | 42 | 1008.5 |
| 20260509192511 | 10 | 318 | 9.7 | 25.7 | 0.00 | 0.00 | 0.00 | 41 | 1008.5 |
| 20260509192013 | 11 | 258 | 3.2 | 14.5 | 0.00 | 0.00 | 0.00 | 44 | 1008.4 |
| 20260509191530 | 11 | 301 | 4.8 | 20.9 | 0.00 | 0.00 | 0.00 | 44 | 1008.4 |
| 20260509191013 | 11 | 342 | 9.7 | 20.9 | 0.00 | 0.00 | 0.00 | 42 | 1008.3 |
| 20260509190510 | 11 | 254 | 6.4 | 20.9 | 0.00 | 0.00 | 0.00 | 43 | 1008.3 |
| 20260509190031 | 10 | 331 | 6.4 | 20.9 | 0.00 | 0.00 | 0.00 | 43 | 1008.3 |
| 20260509185509 | 11 | 293 | 6.4 | 20.9 | 0.00 | 0.00 | 0.00 | 43 | 1008.0 |
| 20260509185014 | 11 | 323 | 6.4 | 20.9 | 0.00 | 0.00 | 0.00 | 42 | 1007.9 |
| 20260509184542 | 11 | 199 | 3.2 | 16.1 | 0.00 | 0.00 | 0.00 | 44 | 1007.9 |
| 20260509184010 | 10 | 323 | 4.8 | 16.1 | 0.00 | 0.00 | 0.00 | 47 | 1007.9 |
| 20260509183514 | 11 | 302 | 3.2 | 17.7 | 0.00 | 0.00 | 0.00 | 44 | 1007.9 |
| 20260509183029 | 11 | 284 | 4.8 | 17.7 | 0.00 | 0.00 | 0.00 | 44 | 1007.7 |
| 20260509182510 | 11 | 319 | 6.4 | 19.3 | 0.00 | 0.00 | 0.00 | 45 | 1007.6 |
| 20260509182015 | 10 | 340 | 4.8 | 19.3 | 0.00 | 0.00 | 0.00 | 46 | 1007.7 |
| 20260509181529 | 10 | 288 | 4.8 | 17.7 | 0.00 | 0.00 | 0.00 | 44 | 1007.5 |
| 20260509181011 | 11 | 283 | 8.0 | 17.7 | 0.00 | 0.00 | 0.00 | 43 | 1007.6 |
| 20260509180515 | 11 | 282 | 6.4 | 16.1 | 0.00 | 0.00 | 0.00 | 43 | 1007.4 |
| 20260509180053 | 11 | 284 | 4.8 | 16.1 | 0.00 | 0.00 | 0.00 | 44 | 1007.3 |
| 20260509175511 | 10 | 242 | 3.2 | 17.7 | 0.00 | 0.00 | 0.00 | 49 | 1007.3 |
| 20260509175014 | 10 | 273 | 6.4 | 17.7 | 0.00 | 0.00 | 0.00 | 44 | 1007.2 |
| 20260509174532 | 11 | 339 | 6.4 | 16.1 | 0.00 | 0.00 | 0.00 | 44 | 1007.2 |
| 20260509174010 | 11 | 312 | 1.6 | 16.1 | 0.00 | 0.00 | 0.00 | 45 | 1007.1 |
| 20260509173513 | 11 | 313 | 1.6 | 17.7 | 0.00 | 0.00 | 0.00 | 46 | 1007.1 |
| 20260509173040 | 11 | 271 | 4.8 | 17.7 | 0.00 | 0.00 | 0.00 | 44 | 1006.9 |
| 20260509172515 | 11 | 0 | 3.2 | 16.1 | 0.00 | 0.00 | 0.00 | 43 | 1007.0 |
| 20260509172011 | 11 | 254 | 4.8 | 17.7 | 0.00 | 0.00 | 0.00 | 45 | 1006.9 |
| 20260509171529 | 11 | 307 | 3.2 | 17.7 | 0.00 | 0.00 | 0.00 | 46 | 1006.7 |
| 20260509171011 | 11 | 309 | 4.8 | 17.7 | 0.00 | 0.00 | 0.00 | 44 | 1006.7 |
| 20260509170512 | 11 | 303 | 4.8 | 20.9 | 0.00 | 0.00 | 0.00 | 42 | 1006.7 |
| 20260509170045 | 12 | 265 | 6.4 | 20.9 | 0.00 | 0.00 | 0.00 | 42 | 1006.6 |
| 20260509165513 | 12 | 331 | 6.4 | 20.9 | 0.00 | 0.00 | 0.00 | 45 | 1006.5 |
| 20260509165013 | 11 | 312 | 3.2 | 16.1 | 0.00 | 0.00 | 0.00 | 40 | 1006.6 |
| 20260509164531 | 11 | 286 | 3.2 | 32.2 | 0.00 | 0.00 | 0.00 | 45 | 1006.4 |
| 20260509164010 | 11 | 307 | 3.2 | 32.2 | 0.00 | 0.00 | 0.00 | 45 | 1006.4 |
| 20260509163512 | 11 | 296 | 4.8 | 20.9 | 0.00 | 0.00 | 0.00 | 42 | 1006.2 |
| 20260509163031 | 11 | 5 | 4.8 | 16.1 | 0.00 | 0.00 | 0.00 | 44 | 1006.2 |
| 20260509162512 | 11 | 315 | 6.4 | 16.1 | 0.00 | 0.00 | 0.00 | 42 | 1006.1 |
| 20260509162016 | 11 | 17 | 4.8 | 19.3 | 0.00 | 0.00 | 0.00 | 42 | 1006.1 |
| 20260509161529 | 11 | 355 | 6.4 | 25.7 | 0.00 | 0.00 | 0.00 | 39 | 1006.0 |
| 20260509161011 | 11 | 284 | 8.0 | 25.7 | 0.00 | 0.00 | 0.00 | 39 | 1005.8 |
| 20260509160511 | 11 | 333 | 6.4 | 25.7 | 0.00 | 0.00 | 0.00 | 40 | 1005.7 |
| 20260509160028 | 11 | 321 | 6.4 | 20.9 | 0.00 | 0.00 | 0.00 | 41 | 1005.6 |
| 20260509155509 | 11 | 319 | 4.8 | 20.9 | 0.00 | 0.00 | 0.00 | 40 | 1005.7 |
| 20260509155013 | 11 | 36 | 4.8 | 20.9 | 0.00 | 0.00 | 0.00 | 41 | 1005.6 |
| 20260509154532 | 11 | 355 | 8.0 | 17.7 | 0.00 | 0.00 | 0.00 | 39 | 1005.4 |
| 20260509154009 | 11 | 348 | 6.4 | 17.7 | 0.00 | 0.00 | 0.00 | 42 | 1005.4 |
| 20260509153511 | 11 | 304 | 8.0 | 19.3 | 0.00 | 0.00 | 0.00 | 39 | 1005.3 |
| 20260509153033 | 11 | 273 | 8.0 | 19.3 | 0.00 | 0.00 | 0.00 | 41 | 1005.1 |
| 20260509152508 | 11 | 300 | 4.8 | 20.9 | 0.00 | 0.00 | 0.00 | 43 | 1005.1 |
| 20260509152013 | 11 | 329 | 8.0 | 20.9 | 0.00 | 0.00 | 0.00 | 41 | 1005.0 |
| 20260509151530 | 11 | 274 | 6.4 | 20.9 | 0.00 | 0.00 | 0.00 | 41 | 1005.0 |
| 20260509151011 | 10 | 327 | 9.7 | 19.3 | 0.00 | 0.00 | 0.00 | 39 | 1004.8 |
| 20260509150517 | 10 | 326 | 9.7 | 27.4 | 0.00 | 0.00 | 0.00 | 40 | 1004.8 |
| 20260509150028 | 10 | 309 | 6.4 | 27.4 | 0.00 | 0.00 | 0.00 | 41 | 1004.6 |
| 20260509145510 | 10 | 239 | 4.8 | 27.4 | 0.00 | 0.00 | 0.00 | 40 | 1004.6 |
| 20260509145012 | 10 | 333 | 4.8 | 25.7 | 0.00 | 0.00 | 0.00 | 42 | 1004.5 |
| 20260509144532 | 10 | 275 | 4.8 | 20.9 | 0.00 | 0.00 | 0.00 | 39 | 1004.5 |
| 20260509144008 | 10 | 318 | 4.8 | 14.5 | 0.00 | 0.00 | 0.00 | 42 | 1004.5 |
| 20260509143513 | 9 | 325 | 3.2 | 16.1 | 0.00 | 0.00 | 0.00 | 44 | 1004.4 |
| 20260509143035 | 9 | 317 | 4.8 | 17.7 | 0.00 | 0.00 | 0.00 | 42 | 1004.4 |
| 20260509142512 | 9 | 324 | 6.4 | 17.7 | 0.00 | 0.00 | 0.00 | 44 | 1004.5 |
| 20260509142015 | 9 | 317 | 6.4 | 17.7 | 0.00 | 0.00 | 0.00 | 41 | 1004.3 |
| 20260509141540 | 9 | 336 | 6.4 | 22.5 | 0.00 | 0.00 | 0.00 | 43 | 1004.2 |
| 20260509141011 | 9 | 306 | 6.4 | 22.5 | 0.00 | 0.00 | 0.00 | 46 | 1003.9 |
| 20260509140515 | 8 | 34 | 3.2 | 14.5 | 0.00 | 0.00 | 0.00 | 47 | 1004.0 |
| 20260509140031 | 8 | 314 | 3.2 | 14.5 | 0.00 | 0.00 | 0.00 | 44 | 1003.9 |
| 20260509135513 | 8 | 281 | 3.2 | 14.5 | 0.00 | 0.00 | 0.00 | 45 | 1004.0 |
| 20260509135012 | 7 | 294 | 3.2 | 14.5 | 0.00 | 0.00 | 0.00 | 45 | 1003.9 |
| 20260509134533 | 7 | 41 | 4.8 | 14.5 | 0.00 | 0.00 | 0.00 | 45 | 1004.0 |
| 20260509134009 | 7 | 351 | 4.8 | 19.3 | 0.00 | 0.00 | 0.00 | 44 | 1003.9 |
| 20260509133512 | 7 | 322 | 1.6 | 19.3 | 0.00 | 0.00 | 0.00 | 46 | 1004.0 |
| 20260509133028 | 7 | 313 | 4.8 | 19.3 | 0.00 | 0.00 | 0.00 | 46 | 1003.8 |
| 20260509132516 | 7 | 304 | 6.4 | 19.3 | 0.00 | 0.00 | 0.00 | 45 | 1003.7 |
| 20260509132013 | 7 | 296 | 8.0 | 19.3 | 0.00 | 0.00 | 0.00 | 46 | 1003.7 |
| 20260509131551 | 7 | 344 | 1.6 | 8.0 | 0.00 | 0.00 | 0.00 | 48 | 1003.7 |
| 20260509131011 | 7 | 340 | 1.6 | 8.0 | 0.00 | 0.00 | 0.00 | 49 | 1003.6 |
| 20260509130514 | 7 | 311 | 0.0 | 8.0 | 0.00 | 0.00 | 0.00 | 48 | 1003.4 |
| 20260509130030 | 7 | 261 | 0.0 | 11.3 | 0.00 | 0.00 | 0.00 | 49 | 1003.4 |
| 20260509125515 | 7 | 321 | 3.2 | 11.3 | 0.00 | 0.00 | 0.00 | 47 | 1003.2 |
| 20260509125011 | 7 | 0 | 1.6 | 16.1 | 0.00 | 0.00 | 0.00 | 49 | 1003.3 |
| 20260509124531 | 7 | 311 | 3.2 | 16.1 | 0.00 | 0.00 | 0.00 | 49 | 1003.3 |
| 20260509124011 | 7 | 292 | 4.8 | 16.1 | 0.00 | 0.00 | 0.00 | 47 | 1003.2 |
| 20260509123515 | 7 | 0 | 1.6 | 11.3 | 0.00 | 0.00 | 0.00 | 48 | 1003.2 |
| 20260509123033 | 7 | 293 | 1.6 | 6.4 | 0.00 | 0.00 | 0.00 | 50 | 1003.1 |
| 20260509122511 | 7 | 0 | 0.0 | 6.4 | 0.00 | 0.00 | 0.00 | 51 | 1003.0 |
| 20260509122012 | 7 | 355 | 0.0 | 6.4 | 0.00 | 0.00 | 0.00 | 51 | 1003.1 |
| 20260509121533 | 7 | 355 | 0.0 | 6.4 | 0.00 | 0.00 | 0.00 | 51 | 1003.0 |
| 20260509121010 | 7 | 0 | 1.6 | 9.7 | 0.00 | 0.00 | 0.00 | 49 | 1003.0 |
| 20260509120512 | 7 | 331 | 1.6 | 14.5 | 0.00 | 0.00 | 0.00 | 51 | 1003.0 |
| 20260509120032 | 7 | 302 | 4.8 | 14.5 | 0.00 | 0.00 | 0.00 | 49 | 1002.8 |
| 20260509115510 | 7 | 325 | 1.6 | 4.8 | 0.00 | 0.00 | 0.00 | 50 | 1002.9 |
| 20260509115013 | 7 | 0 | 0.0 | 4.8 | 0.00 | 0.00 | 0.00 | 50 | 1002.9 |
| 20260509114535 | 7 | 317 | 0.0 | 8.0 | 0.00 | 0.00 | 0.00 | 52 | 1002.8 |
| 20260509114017 | 7 | 317 | 0.0 | 8.0 | 0.00 | 0.00 | 0.00 | 50 | 1002.7 |
| 20260509113514 | 7 | 0 | 0.0 | 8.0 | 0.00 | 0.00 | 0.00 | 50 | 1002.6 |
| 20260509113035 | 7 | 311 | 1.6 | 8.0 | 0.00 | 0.00 | 0.00 | 51 | 1002.6 |
| 20260509112511 | 7 | 311 | 1.6 | 4.8 | 0.00 | 0.00 | 0.00 | 52 | 1002.6 |
| 20260509112013 | 7 | 344 | 3.2 | 4.8 | 0.00 | 0.00 | 0.00 | 52 | 1002.6 |
| 20260509111530 | 7 | 350 | 0.0 | 4.8 | 0.00 | 0.00 | 0.00 | 53 | 1002.5 |
| 20260509111009 | 7 | 0 | 0.0 | 4.8 | 0.00 | 0.00 | 0.00 | 53 | 1002.3 |
| 20260509110516 | 8 | 296 | 1.6 | 4.8 | 0.00 | 0.00 | 0.00 | 52 | 1002.3 |
| 20260509110032 | 8 | 305 | 0.0 | 6.4 | 0.00 | 0.00 | 0.00 | 53 | 1002.2 |
| 20260509105513 | 8 | 305 | 1.6 | 6.4 | 0.00 | 0.00 | 0.00 | 52 | 1002.1 |
| 20260509105012 | 8 | 272 | 3.2 | 12.9 | 0.00 | 0.00 | 0.00 | 52 | 1002.1 |
| 20260509104530 | 8 | 318 | 3.2 | 12.9 | 0.00 | 0.00 | 0.00 | 54 | 1002.0 |
| 20260509104010 | 8 | 285 | 0.0 | 9.7 | 0.00 | 0.00 | 0.00 | 52 | 1002.1 |
| 20260509103512 | 8 | 276 | 3.2 | 9.7 | 0.00 | 0.00 | 0.00 | 52 | 1002.0 |
| 20260509103031 | 8 | 0 | 1.6 | 11.3 | 0.00 | 0.00 | 0.00 | 53 | 1002.0 |
| 20260509102510 | 8 | 287 | 1.6 | 11.3 | 0.00 | 0.00 | 0.00 | 52 | 1001.9 |
| 20260509102018 | 8 | 0 | 1.6 | 11.3 | 0.00 | 0.00 | 0.00 | 53 | 1002.0 |
| 20260509101536 | 8 | 309 | 3.2 | 11.3 | 0.00 | 0.00 | 0.00 | 53 | 1001.8 |
| 20260509101051 | 8 | 284 | 4.8 | 11.3 | 0.00 | 0.00 | 0.00 | 52 | 1001.8 |
| 20260509100512 | 8 | 272 | 1.6 | 12.9 | 0.00 | 0.00 | 0.00 | 53 | 1001.7 |
| 20260509100032 | 8 | 243 | 4.8 | 12.9 | 0.00 | 0.00 | 0.00 | 53 | 1001.7 |
| 20260509095512 | 8 | 266 | 4.8 | 12.9 | 0.00 | 0.00 | 0.00 | 53 | 1001.6 |
| 20260509095011 | 8 | 260 | 4.8 | 12.9 | 0.00 | 0.00 | 0.00 | 53 | 1001.6 |
| 20260509094533 | 8 | 0 | 3.2 | 9.7 | 0.00 | 0.00 | 0.00 | 54 | 1001.4 |
| 20260509094011 | 8 | 283 | 3.2 | 8.0 | 0.00 | 0.00 | 0.00 | 54 | 1001.6 |
| 20260509093511 | 8 | 274 | 1.6 | 6.4 | 0.00 | 0.00 | 0.00 | 54 | 1001.4 |
| 20260509093028 | 8 | 274 | 1.6 | 6.4 | 0.00 | 0.00 | 0.00 | 54 | 1001.4 |
| 20260509092512 | 8 | 263 | 1.6 | 6.4 | 0.00 | 0.00 | 0.00 | 54 | 1001.6 |
| 20260509092012 | 8 | 0 | 0.0 | 8.0 | 0.00 | 0.00 | 0.00 | 54 | 1001.4 |
| 20260509091536 | 8 | 289 | 3.2 | 8.0 | 0.00 | 0.00 | 0.00 | 53 | 1001.4 |
| 20260509091009 | 8 | 289 | 3.2 | 9.7 | 0.00 | 0.00 | 0.00 | 53 | 1001.4 |
| 20260509090510 | 8 | 0 | 3.2 | 11.3 | 0.00 | 0.00 | 0.00 | 54 | 1001.3 |
| 20260509090045 | 8 | 250 | 3.2 | 11.3 | 0.00 | 0.00 | 0.00 | 53 | 1001.4 |
| 20260509085511 | 8 | 259 | 1.6 | 9.7 | 0.00 | 0.00 | 0.00 | 54 | 1001.5 |
| 20260509085012 | 8 | 283 | 1.6 | 6.4 | 0.00 | 0.00 | 0.00 | 55 | 1001.5 |
| 20260509084533 | 8 | 325 | 1.6 | 4.8 | 0.00 | 0.00 | 0.00 | 57 | 1001.6 |
| 20260509084009 | 8 | 325 | 1.6 | 6.4 | 0.00 | 0.00 | 0.00 | 56 | 1001.7 |
| 20260509083509 | 8 | 325 | 3.2 | 6.4 | 0.00 | 0.00 | 0.00 | 55 | 1001.7 |
| 20260509083032 | 8 | 325 | 1.6 | 4.8 | 0.00 | 0.00 | 0.00 | 56 | 1001.5 |
| 20260509082510 | 8 | 0 | 0.0 | 4.8 | 0.00 | 0.00 | 0.00 | 56 | 1001.5 |
| 20260509082015 | 8 | 325 | 1.6 | 4.8 | 0.00 | 0.00 | 0.00 | 54 | 1001.5 |
| 20260509081546 | 8 | 325 | 1.6 | 4.8 | 0.00 | 0.00 | 0.00 | 54 | 1001.5 |
| 20260509081009 | 8 | 325 | 0.0 | 4.8 | 0.00 | 0.00 | 0.00 | 54 | 1001.3 |
| 20260509080510 | 8 | 0 | 0.0 | 4.8 | 0.00 | 0.00 | 0.00 | 54 | 1001.4 |
| 20260509080034 | 8 | 325 | 0.0 | 4.8 | 0.00 | 0.00 | 0.00 | 53 | 1001.4 |